Location: Praha
(50.0830°N, 14.4670°E)
Time: 18:56:43
(UTC+02:00)

ISS - Pass Details

Date: 27 April 2021
Orbit: 418 x 422 km, 51.6° (Epoch: 13 April)

Event Time Altitude Azimuth Distance (km) Brightness Sun altitude
Exits shadow 05:01:13 - 201° (SSW) 1,928 -0.9 -7.1°
Reaches altitude 10° 05:02:30 10° 190° (S) 1,499 -1.3 -7.0°
Maximum altitude 05:05:01 20° 142° (SE) 1,047 -1.6 -6.6°
Drops below altitude 10° 05:07:33 10° 93° (E) 1,507 0.1 -6.3°
Sets 05:10:01 0° 76° (ENE) 2,376 1.9 -5.9°
